Terminal Aerodrome Forecast
Issued by NWS

Home | Current Version | Previous Version | Text Only | Print | Product List | Glossary On
Versions: 1 2 3 4 5 6 7 8 9 10 11 12 13 14 15 16 17 18 19 20 21 22
000
FTUS46 KLOX 190600 AAA
TAFSBP
TAF AMD
KSBP 190659Z 1907/2006 VRB03KT P6SM OVC015
     FM191000 VRB03KT 4SM BR BKN008
     FM191600 VRB03KT 6SM BR BKN010
     FM191900 18006KT P6SM VCSH SCT010 BKN035
     FM200200 VRB03KT P6SM VCSH SCT010 BKN030=

USA.gov is the U.S. government's official web portal to all federal, state and local government web resources and services.